Theta_e
303 303 303 303 302 303 304 304 304 305 305 303 302 301 300 296 293 293 292 290 290 289 289 289 289 289 289 289 289 289 289 289 289 289 289 289 289 289 288 288 288 288 288 287 287 286 286 286 286 285 284 283 283 283 283 283 282 281 281 280 280 280 279 279 279 279 280 280 280 280 280 279 280 280 280 280 280 279 279 279 279 278 278 278 278
302 303 303 302 301 302 302 302 302 302 302 301 300 299 297 293 290 290 290 289 289 289 289 289 288 288 288 288 288 288 289 289 288 289 288 288 288 288 288 288 288 287 287 287 287 286 286 286 286 285 284 283 283 283 283 283 282 281 281 280 280 280 279 279 279 278 278 279 279 279 279 279 279 280 279 279 279 279 279 278 278 278 278 278 278
302 303 302 301 300 300 300 300 299 299 298 298 297 296 294 290 289 289 289 289 289 289 288 288 288 288 288 288 288 288 288 288 288 288 288 288 288 288 288 288 288 287 287 287 287 286 286 286 285 285 284 283 283 283 283 283 282 282 281 280 280 279 279 279 278 278 278 278 278 278 279 279 279 279 279 278 278 278 278 278 277 277 277 277 277
302 303 301 299 299 298 298 297 297 296 296 296 296 294 292 289 287 288 288 288 288 288 288 288 288 287 287 287 287 287 287 288 288 288 288 288 288 288 288 287 287 287 287 287 287 287 287 286 286 285 285 284 283 283 283 283 282 282 281 280 280 279 279 278 278 278 277 277 277 278 278 278 278 278 278 278 278 278 277 277 277 277 277 277 277
300 302 301 299 297 297 296 296 295 295 294 294 294 293 290 288 287 287 287 288 287 287 287 287 287 287 287 287 287 287 287 288 288 288 288 287 287 288 288 287 287 287 287 287 287 287 287 286 286 285 285 284 284 284 284 283 283 282 281 281 280 279 279 278 278 278 277 277 277 277 277 277 278 278 277 277 277 277 277 277 277 277 277 277 276
298 300 300 298 296 295 294 294 294 294 293 293 293 292 290 288 287 287 287 287 287 287 287 287 286 287 287 287 287 287 287 287 287 288 287 287 287 287 287 287 287 287 287 287 287 287 287 286 286 286 285 285 285 284 284 283 282 282 282 281 280 279 279 278 278 277 277 277 277 277 277 277 277 277 277 277 276 276 276 277 277 276 276 276 276
297 298 298 297 296 295 294 293 294 294 293 293 292 291 289 287 286 286 287 287 287 287 286 286 286 286 286 286 286 286 287 287 287 288 287 287 287 287 287 287 287 287 287 287 287 287 286 286 286 286 286 286 285 285 284 284 283 283 282 281 280 279 279 278 278 277 277 277 276 277 277 277 277 276 276 276 276 276 276 276 276 276 276 276 276
296 296 296 295 295 294 293 293 293 294 293 292 291 290 289 287 286 286 286 286 286 287 287 286 286 286 286 286 286 286 286 287 287 287 287 287 287 287 287 287 287 287 287 287 286 286 286 286 286 286 286 286 285 285 284 284 283 283 282 281 280 279 279 278 278 277 277 276 276 277 277 276 276 276 276 276 275 275 275 275 275 276 276 275 275
295 295 294 294 294 293 292 292 292 292 291 290 289 288 287 286 286 286 286 286 286 286 286 286 286 285 285 285 285 286 286 287 287 287 287 287 287 287 287 287 287 287 287 287 286 286 286 286 286 286 286 286 285 285 284 284 283 283 283 281 280 280 279 278 278 277 277 276 276 277 276 276 276 276 276 275 275 275 275 275 275 275 276 275 275
294 294 293 293 293 292 291 292 291 290 289 288 287 286 286 286 285 285 286 286 286 286 285 285 285 285 285 285 285 285 286 286 287 287 287 287 287 287 287 287 287 287 287 286 286 286 286 286 286 286 286 286 285 285 284 284 284 284 283 281 280 280 279 279 278 278 277 276 277 276 275 275 276 275 275 276 275 275 275 275 275 275 276 276 275
293 293 293 292 292 291 291 291 290 289 287 286 286 286 286 285 285 285 285 285 285 285 284 285 285 285 285 285 285 285 286 286 287 287 287 287 287 287 287 287 287 287 286 286 286 286 286 286 286 286 285 285 285 285 285 284 284 284 283 281 280 280 280 279 279 278 277 277 277 276 275 276 276 276 275 276 275 275 275 275 275 276 276 275 275
293 292 292 292 291 291 290 290 289 288 287 286 286 286 285 285 285 285 285 285 284 284 284 284 284 284 284 284 285 285 285 286 287 287 287 287 287 287 287 287 287 287 286 286 286 286 286 286 286 285 285 285 285 285 285 284 284 283 282 281 280 280 280 280 280 279 278 277 277 277 276 276 276 276 276 276 275 275 275 275 276 276 275 275 274
292 292 292 291 291 290 290 289 289 288 287 287 286 286 285 285 285 285 285 284 284 284 284 284 284 284 284 284 285 285 285 286 287 287 287 287 287 287 287 287 287 287 287 286 286 286 286 286 285 285 285 285 285 285 285 284 284 283 282 281 280 280 280 280 280 279 279 278 277 277 277 277 277 276 276 276 275 275 275 276 276 275 275 274 274
291 291 291 291 290 290 289 289 288 288 288 287 287 286 285 285 285 284 284 284 284 284 284 284 284 284 284 284 284 284 285 286 287 287 287 287 287 287 287 287 287 287 286 286 286 286 286 286 285 285 285 285 285 285 285 284 284 283 282 281 281 280 280 279 279 279 279 279 278 278 278 277 276 276 276 275 275 275 275 275 275 275 274 274 273
290 290 290 290 290 290 289 289 288 288 288 287 286 286 285 285 284 284 284 284 284 284 284 284 284 284 284 284 284 284 285 286 286 287 287 287 287 287 286 287 286 286 286 286 286 286 286 285 285 285 285 285 285 285 285 284 284 283 282 282 281 281 280 279 279 279 279 278 278 278 277 277 276 276 275 275 276 276 275 275 275 274 274 273 272
289 289 289 289 289 289 289 288 288 288 287 286 286 285 285 285 284 284 284 283 283 284 284 284 284 284 284 284 284 284 285 285 286 286 287 287 286 286 286 286 286 286 286 286 286 285 285 285 285 285 285 285 285 285 284 284 283 282 282 282 281 281 280 280 279 278 277 277 277 276 276 275 275 275 274 275 276 276 275 275 275 274 273 272 271
289 289 289 289 289 288 288 288 288 287 287 286 286 285 285 284 284 284 284 283 283 283 283 284 284 285 284 284 284 284 285 286 286 286 286 286 286 285 285 285 285 285 285 286 285 285 285 285 285 285 285 285 285 284 283 283 282 282 281 281 281 281 281 281 280 278 277 277 276 276 275 275 275 275 275 276 277 276 276 275 274 274 272 271 270
288 289 289 289 289 288 288 288 288 287 286 286 286 285 285 285 284 284 284 283 283 283 283 284 285 285 284 284 284 285 286 286 285 285 285 285 285 284 284 284 284 284 285 285 285 285 285 285 285 284 284 284 284 283 282 281 281 281 280 280 280 280 281 281 280 279 278 277 276 276 276 276 276 276 277 277 277 277 276 275 274 273 272 270 269
288 288 288 288 288 288 288 288 288 287 287 286 286 286 285 285 285 284 284 284 285 285 286 286 285 285 284 283 284 285 285 285 284 284 284 284 284 283 283 283 283 283 284 284 284 284 284 284 284 283 284 284 283 282 281 280 280 280 280 279 278 279 281 280 279 278 278 277 276 276 276 276 276 276 276 276 277 277 276 275 274 273 272 270 269
288 288 288 288 288 288 288 288 288 288 287 287 286 286 286 285 285 285 286 286 287 287 287 287 286 285 284 284 284 284 284 284 283 283 282 282 283 282 282 282 282 283 283 283 283 283 283 284 283 283 283 283 282 281 281 280 279 280 279 278 278 279 280 279 278 277 277 276 276 276 275 275 275 275 275 276 276 276 275 275 274 273 271 269 269
288 288 288 288 288 288 288 288 288 288 288 287 287 286 286 286 287 287 288 288 288 287 287 286 285 285 285 284 284 283 283 283 282 282 282 282 282 282 281 282 282 282 282 282 282 282 282 283 283 283 282 282 282 281 281 280 280 280 279 279 279 280 280 278 278 277 276 276 275 275 275 275 274 274 275 275 275 275 275 274 274 272 271 269 269
288 288 288 288 288 288 288 288 288 287 287 287 287 287 288 288 289 289 289 288 287 286 286 285 284 284 283 283 283 282 282 282 282 282 282 282 282 281 281 281 281 281 282 282 282 282 282 282 282 281 281 281 281 281 280 280 280 280 280 280 280 280 279 278 278 277 276 276 275 275 275 275 275 275 275 275 275 275 274 274 273 271 270 269 268
289 288 288 288 288 288 288 287 287 287 288 289 290 290 290 289 289 288 287 286 285 284 284 283 282 282 282 282 282 282 282 282 282 282 282 281 281 280 280 280 280 281 281 282 281 281 281 281 281 281 281 281 281 281 281 280 280 279 279 280 280 280 280 279 279 278 277 276 276 276 275 275 275 275 275 275 275 274 274 273 272 271 269 268 268
289 288 288 288 288 288 288 288 288 289 290 290 290 289 288 287 286 285 285 284 283 283 282 282 282 281 281 282 281 281 281 281 281 281 281 281 280 280 280 279 279 280 280 281 281 281 281 281 281 281 281 281 281 280 280 280 279 279 279 279 280 280 280 280 280 279 278 277 276 275 275 275 275 275 275 275 274 273 273 272 272 270 269 268 268
288 288 288 288 288 289 289 289 289 289 289 288 287 286 286 285 284 283 283 283 282 282 282 282 281 281 281 281 281 281 280 280 280 280 280 280 280 280 280 279 279 279 279 279 280 280 280 280 280 280 280 280 280 280 279 279 279 279 279 279 279 279 279 279 279 279 278 277 276 275 275 275 275 275 274 274 273 272 272 272 271 270 269 268 268
289 288 289 289 288 288 288 287 287 287 286 286 286 285 285 285 284 283 283 282 282 282 281 281 281 280 280 280 280 280 280 280 280 280 280 280 279 279 279 279 279 279 279 279 279 279 279 279 279 279 279 279 279 279 279 279 278 278 278 278 278 278 278 278 278 278 278 277 276 276 276 275 275 274 273 273 272 272 271 271 270 269 268 268 267
289 288 288 288 287 287 287 286 285 285 284 284 284 284 284 284 283 283 282 282 282 281 281 281 280 280 280 280 280 280 279 279 279 279 279 279 279 279 278 278 278 278 278 278 279 278 278 278 278 277 277 277 278 278 278 278 278 278 278 277 277 277 277 277 277 277 277 277 276 276 275 274 273 273 272 272 271 271 270 270 269 269 268 267 266
288 287 287 286 286 285 286 286 285 284 284 283 283 283 283 283 283 283 282 282 282 282 282 281 281 281 281 281 280 280 279 279 279 279 278 278 278 278 278 278 277 277 277 277 277 277 277 276 276 276 275 275 276 276 276 277 278 277 277 277 277 276 276 276 276 276 276 276 276 275 274 273 273 272 272 271 271 270 270 269 269 268 267 266 265
287 287 286 286 285 285 285 285 285 284 284 283 283 282 282 283 283 282 282 282 282 282 281 281 281 281 280 280 279 279 278 278 278 278 278 278 278 277 277 277 277 277 277 277 276 276 276 275 275 275 275 275 274 274 275 276 276 276 276 276 276 276 275 275 275 275 276 275 275 274 273 273 272 272 271 271 271 270 270 269 268 267 266 265 265
287 286 286 286 285 285 285 285 284 284 284 284 283 283 282 282 282 282 282 281 281 281 281 280 280 280 279 279 279 278 278 278 278 277 277 277 277 277 277 277 277 277 277 277 276 276 276 276 275 275 275 274 274 274 275 275 275 275 275 275 275 275 275 275 275 275 275 274 274 273 273 272 271 271 271 271 271 270 269 268 267 266 265 264 264
287 286 286 286 286 286 286 286 285 285 285 284 284 283 282 281 281 281 281 280 280 280 280 279 279 279 279 278 278 278 277 277 277 277 277 277 277 277 277 277 277 277 277 277 277 277 276 276 276 276 276 275 275 275 275 274 274 274 274 274 274 274 274 274 274 274 274 274 273 272 272 271 271 271 271 271 270 270 269 268 266 265 265 264 264
288 287 286 287 286 286 287 286 286 286 285 284 283 283 282 281 279 279 279 279 279 279 278 278 278 278 278 278 277 277 276 276 277 277 277 277 277 277 277 277 277 277 278 278 277 277 277 276 276 275 275 275 274 274 274 273 273 273 273 273 273 273 273 273 273 273 273 272 272 272 271 270 270 270 270 270 269 268 268 267 266 265 264 264 264
288 287 287 287 286 286 286 285 285 285 284 283 283 282 282 281 280 278 278 277 277 277 277 277 277 277 277 277 277 276 276 276 276 276 276 276 276 276 276 276 276 276 277 277 277 276 275 275 274 273 272 272 272 271 271 271 271 271 271 271 272 272 272 272 272 272 272 271 271 271 270 270 269 269 269 268 268 267 267 266 265 265 264 264 264
287 286 286 285 285 284 284 283 283 283 282 282 282 281 281 281 280 279 277 277 276 277 276 276 276 276 275 275 275 275 275 275 275 275 274 274 275 274 275 275 275 275 275 275 274 273 273 272 271 270 269 269 269 269 269 268 268 268 268 269 269 269 269 270 270 270 270 270 270 270 269 269 269 268 268 268 267 267 266 265 265 264 264 264 264
285 284 284 284 284 283 283 282 282 282 281 281 281 281 280 280 279 279 278 277 277 276 275 275 275 274 274 274 273 273 273 273 273 273 273 273 273 273 273 273 273 273 273 273 272 271 270 269 268 267 267 267 266 266 266 266 266 266 266 266 266 267 267 267 268 268 268 268 268 269 269 268 268 268 267 267 266 266 265 265 264 264 264 264 263
284 284 283 283 283 283 283 282 282 282 281 281 280 280 279 279 278 277 277 276 275 274 273 273 273 273 273 273 272 272 271 271 271 271 271 271 271 271 271 271 270 270 270 270 270 269 268 267 267 266 265 265 265 264 264 263 263 263 263 263 264 264 264 265 266 266 267 267 267 267 267 267 267 267 266 266 266 265 265 264 264 264 264 263 263
284 284 283 282 282 282 282 282 281 280 280 280 279 278 278 277 276 276 275 274 273 273 272 271 271 271 271 271 271 270 270 270 270 269 269 269 269 269 269 268 268 267 267 266 266 266 266 266 265 265 264 264 264 263 263 262 262 262 262 262 262 263 263 263 264 265 265 265 265 266 266 266 266 266 265 265 265 265 264 264 263 263 263 262 262
283 283 282 282 282 281 281 280 280 279 278 278 277 277 276 275 275 274 274 273 272 272 271 271 270 270 270 269 269 269 269 269 269 269 268 268 267 267 267 266 266 265 265 264 264 264 264 264 264 264 264 263 263 263 263 262 262 262 261 261 262 262 262 263 263 264 264 264 264 264 265 265 265 265 264 264 264 264 264 263 263 263 262 262 261
281 281 281 281 280 280 280 279 278 278 277 277 276 275 275 275 274 273 273 272 272 271 271 270 270 269 269 268 268 268 268 268 268 267 267 266 266 266 265 265 265 264 264 264 263 263 263 263 263 263 263 263 263 262 262 262 262 261 261 261 261 262 262 262 262 263 263 263 263 263 263 263 264 263 263 263 263 263 263 263 263 262 262 262 261
281 280 280 279 279 278 278 278 278 277 277 276 275 275 274 274 273 273 272 272 271 271 270 270 270 269 268 267 266 266 267 267 266 266 266 265 265 265 265 264 264 264 264 263 263 263 263 263 263 262 262 262 262 262 262 261 261 261 260 260 261 261 261 261 261 262 262 262 262 262 262 262 262 262 262 263 263 263 262 262 262 261 261 261 261
280 279 278 278 278 277 277 276 276 276 275 275 274 274 273 273 272 272 271 271 270 270 269 269 268 267 266 266 265 265 266 265 265 265 265 265 265 265 264 264 264 264 263 263 263 263 263 263 262 262 262 262 261 261 261 261 261 261 260 260 260 260 261 261 261 261 261 262 262 262 262 261 261 262 262 262 262 262 261 261 261 261 261 261 260
279 278 277 276 276 276 276 275 275 274 274 273 273 272 272 271 271 270 270 269 269 268 268 267 266 266 265 265 264 264 265 265 265 265 265 264 264 264 264 264 264 263 263 263 263 263 263 263 262 262 262 262 261 261 261 261 261 261 261 261 260 260 260 260 260 260 261 261 261 261 261 261 261 261 261 261 261 261 261 260 260 260 260 260 260
277 276 275 275 274 274 275 274 273 273 272 272 271 271 270 270 270 269 268 268 267 267 266 266 265 265 264 264 264 264 264 264 264 264 264 264 264 264 264 263 263 263 263 263 262 262 262 262 262 262 262 262 261 261 261 261 261 261 261 261 261 260 260 260 260 260 260 260 260 260 260 260 260 260 260 260 260 260 260 260 260 260 260 260 259
275 274 274 273 273 272 272 272 272 271 271 270 270 269 269 268 268 267 267 266 266 265 265 265 264 264 264 264 264 264 264 264 264 264 264 264 264 263 263 263 263 263 263 262 262 262 262 262 262 262 262 262 262 262 261 261 261 261 261 261 261 261 261 260 260 259 259 259 259 259 260 260 260 260 260 260 260 260 259 259 259 259 259 259 259
273 273 273 272 272 271 271 270 270 270 270 269 268 268 267 266 266 266 265 265 265 264 264 264 264 263 263 263 263 263 263 263 263 263 263 263 263 263 263 263 263 263 262 262 262 262 262 262 262 262 262 262 262 262 262 261 261 261 261 260 261 261 261 260 260 259 259 259 259 259 259 259 259 260 260 260 259 259 259 259 259 259 259 259 258
272 272 272 271 271 270 269 269 268 268 267 267 266 266 266 265 265 265 264 264 264 264 264 263 263 263 263 263 263 263 263 263 263 263 263 263 263 263 262 262 262 262 262 262 262 262 262 261 261 262 262 262 262 262 261 261 261 261 261 261 261 261 261 260 260 260 260 260 260 260 260 259 259 259 260 259 259 259 259 259 259 259 259 258 258
270 270 269 269 269 269 268 268 267 266 266 265 265 265 264 264 264 264 263 263 263 263 263 263 263 263 263 263 263 263 263 263 263 263 263 263 263 262 262 262 262 262 262 262 262 262 262 261 261 261 261 261 261 261 261 261 261 261 261 261 261 261 260 260 260 260 260 260 260 260 260 260 260 260 260 259 259 259 259 259 259 259 258 258 257
268 268 268 267 267 267 267 266 266 265 265 264 264 264 264 263 263 263 263 263 263 263 263 263 263 263 263 263 263 263 263 263 263 263 262 262 262 262 262 262 262 262 262 262 262 261 261 261 261 261 261 261 261 261 260 260 260 260 261 261 261 260 260 260 260 260 260 260 260 260 260 260 260 260 260 259 259 259 258 258 258 258 258 257 257
267 267 266 266 266 266 265 265 264 264 264 264 263 263 263 263 263 263 262 262 262 262 262 263 263 263 263 263 262 262 262 262 262 262 262 262 262 262 262 262 262 262 262 262 261 261 261 261 261 261 261 261 261 261 260 260 260 260 260 260 260 260 260 260 260 260 260 260 260 260 260 260 260 260 259 259 259 258 258 258 258 258 257 257 257
266 266 265 265 265 265 264 264 263 263 263 263 263 263 263 262 263 262 262 262 262 262 262 262 262 262 262 262 262 262 262 262 262 262 262 262 262 262 262 262 262 261 261 262 262 262 262 262 262 262 261 261 261 261 261 261 260 260 260 260 260 260 259 259 259 259 259 259 259 259 259 259 259 259 259 259 258 258 258 258 257 257 257 257 257
265 265 264 264 264 264 263 263 263 263 263 263 263 262 262 262 262 262 262 262 262 262 262 262 262 262 262 262 262 262 262 262 262 262 262 262 262 262 262 262 262 262 262 262 263 263 263 262 262 262 262 262 262 262 261 261 261 261 261 261 261 260 260 259 259 259 259 258 258 258 258 258 258 258 258 258 258 258 258 257 257 257 257 257 257
Wind_Speed
37 37 36 36 36 36 36 36 34 33 33 35 36 37 39 42 43 44 44 45 45 45 44 42 41 40 39 37 36 34 33 32 30 29 28 27 25 24 23 22 20 18 17 17 16 14 12 11 10 10 11 11 10 9 8 8 8 8 9 10 11 11 12 14 15 16 17 16 17 18 19 19 20 19 20 22 22 23 23 23 23 24 25 25 25
37 37 36 37 37 36 36 36 35 35 36 36 36 38 41 43 44 45 45 45 46 45 44 43 41 40 38 37 36 34 33 32 31 30 29 28 26 25 23 22 21 19 18 17 16 15 13 12 11 11 12 12 11 10 9 9 9 9 10 11 12 12 13 14 15 16 18 19 18 18 18 19 20 20 21 23 24 24 24 24 24 24 24 25 26
37 37 37 37 37 36 36 36 36 36 36 36 37 38 41 43 44 45 46 46 45 44 43 42 41 39 38 36 35 34 33 31 30 30 29 28 27 26 24 22 21 20 20 18 16 15 14 14 13 12 12 13 12 11 9 9 10 10 11 12 13 13 14 15 15 15 17 20 18 17 18 19 21 22 22 23 23 24 25 26 25 25 24 25 26
36 37 37 36 36 36 36 36 36 36 36 37 37 39 41 43 43 44 45 45 44 43 42 41 40 39 38 36 35 34 32 31 30 29 29 28 27 26 24 22 21 20 19 18 17 16 15 15 14 13 13 14 13 11 10 10 10 11 12 13 13 14 15 16 17 17 17 19 20 19 20 21 22 22 22 23 23 23 25 26 26 25 24 24 25
36 37 37 36 35 36 36 36 36 37 37 37 37 39 41 43 42 42 43 43 43 42 41 40 39 38 37 36 35 33 32 31 30 29 28 27 26 25 23 22 21 20 19 17 16 16 16 15 14 14 14 15 14 12 11 11 12 12 13 14 14 15 15 16 17 18 19 21 23 23 22 22 23 23 21 22 24 25 26 26 26 25 24 25 25
36 36 37 36 36 36 37 37 37 37 37 37 38 40 42 43 42 42 42 42 41 41 40 39 38 37 37 35 34 33 31 30 30 29 28 27 26 24 22 22 21 20 19 18 17 16 16 15 15 15 15 14 14 13 12 12 13 14 14 14 14 15 16 17 18 18 20 22 23 24 24 23 23 23 21 20 22 25 27 28 27 23 23 25 25
36 36 37 37 37 38 38 38 38 38 38 38 39 40 42 43 43 42 41 41 41 40 40 39 38 37 36 34 33 32 31 30 30 29 28 28 26 25 23 22 22 21 20 19 18 17 17 17 17 16 15 14 14 14 13 14 14 15 15 15 15 16 17 18 18 19 20 22 23 24 25 24 23 22 21 20 20 21 21 26 30 28 24 23 23
36 36 36 37 38 39 38 38 38 38 38 39 39 41 43 43 42 41 41 40 41 40 40 39 38 36 35 34 33 32 31 31 30 30 29 28 27 25 24 23 23 22 21 20 19 19 19 19 19 17 16 15 15 15 14 15 15 16 16 16 17 18 18 18 18 19 20 22 24 24 24 25 24 23 21 19 19 18 17 19 25 29 28 25 21
36 36 36 37 38 37 37 37 38 38 38 38 39 40 41 41 40 39 39 40 40 40 39 39 38 36 35 34 33 33 32 31 31 31 30 29 28 26 25 24 23 23 22 21 21 22 22 22 21 19 17 17 17 16 16 16 17 18 18 18 19 19 19 18 18 20 21 22 24 24 23 25 24 22 21 18 17 18 18 17 20 23 25 26 22
36 36 36 36 35 34 35 36 37 37 37 37 37 38 38 38 38 38 38 39 39 39 38 37 36 36 35 35 34 33 33 32 32 31 30 29 28 27 26 25 24 23 23 23 24 24 24 24 22 20 19 19 19 19 18 19 19 20 19 20 20 20 19 20 20 21 22 23 25 24 22 25 25 21 20 20 17 17 17 16 18 20 20 22 23
36 36 35 34 32 31 33 35 35 35 35 34 34 35 36 37 37 37 37 38 38 37 36 36 35 35 36 35 34 34 33 33 32 31 31 30 29 27 27 27 26 25 25 26 27 27 26 25 24 22 21 21 21 21 21 21 21 22 22 22 22 21 21 21 22 22 23 24 26 24 22 27 28 22 20 21 18 16 16 15 16 16 14 15 19
34 34 34 32 31 31 32 33 33 33 33 33 33 34 35 35 36 36 37 37 37 36 35 36 35 35 35 34 34 34 34 33 32 31 31 31 30 29 29 29 28 28 28 29 29 29 28 27 25 24 23 23 23 23 22 23 23 23 24 24 23 23 23 23 23 24 24 25 26 27 26 27 28 24 21 20 18 16 16 14 13 13 12 12 16
33 32 32 31 31 31 31 31 32 32 33 33 33 33 34 34 35 36 37 36 36 35 35 36 35 35 35 34 35 35 34 33 31 31 31 31 31 32 32 31 30 30 31 31 31 31 30 29 27 26 25 25 25 25 25 25 25 26 26 25 25 25 24 24 24 24 25 25 27 29 29 27 27 26 21 18 17 16 16 15 14 14 15 16 19
31 31 30 30 30 30 30 31 32 32 33 33 33 33 34 34 35 36 36 36 36 36 35 35 34 34 35 35 35 34 33 32 30 31 32 33 34 34 34 33 33 33 33 34 33 32 32 31 30 28 27 27 27 27 27 27 27 28 28 27 28 28 27 26 25 25 25 26 28 31 31 28 27 26 21 16 16 17 18 18 17 17 19 21 24
30 29 29 29 30 31 31 32 32 32 32 33 33 33 34 34 35 35 35 35 35 35 34 34 34 34 34 35 34 34 33 32 31 32 35 35 36 36 36 36 35 36 36 36 35 35 34 33 32 31 30 30 30 29 28 29 29 30 30 30 31 31 31 31 29 29 29 30 32 33 33 31 29 26 22 17 16 20 21 21 20 20 23 27 29
28 28 28 29 30 31 32 31 31 31 31 31 31 32 33 33 33 33 32 32 32 32 33 34 34 34 34 34 34 35 34 33 33 35 36 37 37 37 37 38 38 38 39 38 38 38 37 36 35 34 34 34 33 31 30 30 31 32 32 32 32 33 34 33 32 32 32 33 34 34 34 33 30 28 23 18 18 20 21 20 20 20 23 28 30
27 27 27 28 29 30 30 30 29 29 29 30 30 30 30 30 30 30 30 30 30 31 31 31 31 31 33 35 36 36 35 35 36 37 38 38 38 37 38 39 39 40 40 41 41 41 40 39 38 37 38 37 35 34 32 32 32 33 33 33 34 35 37 36 33 33 33 32 33 32 31 29 27 25 22 19 19 21 21 20 20 20 22 23 24
25 26 27 28 28 28 29 29 28 28 29 29 29 29 28 28 28 28 28 27 27 26 26 26 28 31 34 36 36 36 36 37 38 39 39 39 38 37 37 37 38 40 41 43 43 42 42 41 41 40 41 39 37 36 34 32 32 34 35 34 35 37 39 38 36 35 33 31 30 29 27 25 23 22 23 23 23 25 24 23 22 22 23 21 21
25 25 25 26 27 27 27 28 28 28 28 28 28 28 27 27 26 25 24 23 22 23 23 25 29 32 34 36 36 36 37 38 39 39 38 36 35 35 35 35 37 39 41 43 44 43 43 43 42 42 42 40 39 38 36 33 32 34 35 34 35 39 41 39 37 35 32 30 29 28 27 25 24 25 27 26 26 27 26 25 25 26 26 25 23
22 23 23 24 25 25 26 26 26 27 26 26 26 25 24 24 23 22 22 21 22 23 25 27 30 32 34 34 35 36 38 38 38 37 35 33 33 33 33 34 37 39 40 41 42 43 43 43 43 42 41 39 38 37 35 33 31 32 33 34 36 40 40 37 34 32 30 29 29 27 26 25 26 28 29 28 28 29 28 28 28 27 26 26 24
20 21 21 22 23 23 23 24 24 24 24 23 22 22 22 21 21 20 21 21 23 24 26 28 30 31 32 33 34 36 36 37 37 35 32 32 33 32 32 34 36 37 38 38 40 41 42 42 42 41 38 37 36 35 34 31 28 29 32 35 38 39 37 36 35 32 30 30 28 26 25 25 26 27 28 29 30 30 28 27 27 27 25 25 24
20 20 21 21 22 22 22 22 22 22 21 21 20 20 20 19 19 19 20 21 23 25 26 27 29 30 30 31 32 33 33 34 33 33 32 33 32 31 31 33 34 34 36 38 40 41 41 41 41 39 37 36 35 34 34 32 30 30 33 35 35 33 32 32 33 32 30 29 28 27 27 27 28 28 28 30 31 29 26 24 24 24 24 24 23
19 20 21 21 21 21 21 21 21 20 20 19 18 18 18 19 19 19 20 21 22 24 25 25 26 27 28 29 30 31 31 32 31 31 32 31 31 30 30 30 31 30 32 36 39 39 39 39 38 37 36 36 35 34 34 33 31 31 32 32 31 30 30 30 31 30 30 29 29 30 30 30 30 30 31 32 31 27 24 22 22 22 23 23 23
19 20 21 21 21 20 20 20 20 19 18 18 18 18 17 17 18 18 19 20 21 22 23 23 24 26 27 28 29 28 28 29 29 29 29 29 29 29 29 29 29 29 31 36 37 37 37 38 37 36 36 35 35 35 33 32 30 29 29 28 28 28 29 31 31 30 30 29 30 30 31 31 31 32 32 30 27 23 21 20 21 22 22 22 23
20 21 21 21 21 20 20 20 19 18 17 16 16 16 16 16 17 17 18 19 20 21 22 22 23 24 25 25 25 24 24 24 24 24 24 24 24 24 24 25 25 26 30 34 35 36 37 35 33 32 31 31 31 30 30 29 28 27 27 26 26 26 28 29 30 29 29 30 29 30 31 32 32 32 30 26 22 20 19 20 21 21 21 22 23
20 20 20 20 19 19 18 18 17 15 14 14 13 13 14 15 16 17 18 19 20 20 20 20 20 21 22 22 22 21 20 20 20 19 19 19 19 18 18 18 19 20 24 27 29 31 32 31 28 27 27 27 26 27 29 30 29 28 27 26 26 26 27 27 28 29 30 30 30 31 33 33 31 28 25 23 21 20 19 19 21 21 20 21 22
18 18 18 18 17 16 16 15 15 14 13 12 12 12 13 14 15 16 17 18 18 18 18 18 19 19 20 20 20 19 18 18 18 17 16 16 16 15 15 16 16 17 20 22 24 25 27 28 28 28 28 27 26 26 28 29 28 27 26 25 26 27 27 27 29 31 31 30 30 31 31 29 27 25 23 21 20 19 18 19 21 21 19 19 20
18 17 17 16 16 15 14 13 13 13 13 12 12 12 12 12 13 14 14 15 15 16 17 17 18 18 19 18 17 16 16 16 15 14 13 13 13 12 12 13 13 14 17 18 20 21 23 24 25 25 25 25 25 24 23 24 25 25 25 24 25 26 26 27 29 31 32 31 30 30 29 27 26 24 22 21 19 18 17 19 21 20 18 17 18
17 17 16 15 15 14 13 12 12 12 13 12 11 10 10 10 11 11 11 12 12 13 14 14 14 14 14 13 13 13 13 12 11 10 10 10 10 10 10 10 11 11 12 13 15 17 18 19 20 21 20 21 21 20 19 20 22 23 24 23 24 24 25 26 28 30 31 32 32 31 29 28 26 24 22 21 20 18 18 19 20 19 17 16 17
17 16 15 14 14 13 13 12 11 10 10 10 10 9 8 8 9 10 10 9 9 9 9 10 10 9 9 9 8 9 9 8 7 7 7 8 8 9 10 11 11 12 12 11 13 15 17 18 19 19 19 18 18 18 18 19 20 22 23 24 25 25 26 26 28 30 31 32 32 32 30 28 27 26 24 22 21 19 19 19 19 18 16 16 17
17 15 14 13 12 11 11 11 10 10 9 9 10 10 9 8 6 7 7 7 6 6 6 5 5 5 5 5 5 5 6 6 6 6 6 6 7 9 9 10 11 12 12 12 14 16 17 18 19 20 20 21 21 21 22 22 22 23 24 24 25 25 26 27 28 29 31 31 31 31 31 29 28 27 25 24 22 20 19 18 18 18 17 17 17
17 16 14 13 12 11 11 11 11 11 11 11 11 11 11 11 9 6 5 5 4 3 3 2 1 1 1 2 3 3 4 3 3 2 3 4 5 6 6 6 7 9 10 11 13 14 14 15 17 17 17 17 17 17 17 17 18 20 21 22 24 24 25 27 28 28 29 29 29 30 30 29 29 28 26 24 22 20 18 18 18 18 18 17 17
15 16 15 14 14 13 12 12 12 12 12 12 12 11 11 11 10 10 8 7 6 5 5 5 4 3 3 3 2 2 2 2 2 2 3 4 4 4 4 4 4 6 7 8 8 9 8 8 9 9 9 10 11 12 13 13 14 16 16 17 19 20 21 23 24 24 26 27 27 28 28 28 27 26 25 23 22 19 19 19 19 18 18 17 17
15 15 15 14 14 14 13 13 13 12 11 11 11 10 10 9 9 10 10 9 8 7 6 6 6 5 5 5 5 4 3 4 4 5 6 8 8 8 9 9 8 8 9 8 7 8 8 9 9 10 11 12 13 14 15 16 16 17 18 19 19 20 20 20 21 22 23 24 25 26 26 26 25 25 24 23 21 19 19 19 19 18 18 18 18
16 16 15 14 14 14 13 12 11 11 10 10 9 9 8 8 8 9 9 9 9 8 7 7 8 8 7 6 5 4 4 5 6 7 9 12 12 13 13 13 11 11 12 11 10 10 10 10 11 11 12 13 13 14 15 16 17 17 18 19 20 21 21 21 22 22 22 23 23 24 24 24 24 23 23 22 20 20 20 20 19 19 19 18 18
15 15 15 13 12 12 11 10 10 9 9 9 8 8 8 8 8 8 8 9 10 10 9 8 7 7 7 7 6 4 3 4 6 8 9 11 12 12 11 9 8 8 9 9 10 10 10 11 12 13 13 14 15 15 16 16 17 17 17 18 19 20 21 21 22 22 22 22 22 22 22 23 23 22 22 21 20 20 20 19 18 18 18 17 16
13 13 13 12 11 11 11 10 10 9 9 9 9 9 9 9 9 9 9 10 10 10 9 8 7 6 6 6 6 5 5 5 7 8 9 10 10 9 7 6 6 6 6 6 7 8 9 10 11 12 13 14 15 16 16 17 17 17 17 17 18 19 20 19 19 19 20 22 22 22 22 22 22 21 20 20 19 19 18 18 18 18 17 16 15
12 12 12 12 12 11 11 11 11 11 10 10 10 9 10 10 10 10 10 10 10 9 9 7 7 6 6 5 4 5 5 6 7 8 9 9 8 7 6 5 5 5 5 6 7 7 8 8 10 11 12 13 14 15 16 16 16 16 17 17 18 18 18 18 17 17 17 19 21 21 21 21 20 20 19 18 18 18 18 17 17 17 16 15 15
13 13 13 12 12 12 12 12 12 11 11 10 10 10 10 10 10 10 10 10 9 9 8 7 5 5 5 4 4 4 4 5 6 6 5 5 5 5 5 5 5 6 6 7 8 8 9 9 10 11 11 12 13 14 14 15 15 15 15 16 16 17 17 17 17 16 16 17 18 19 19 20 19 18 17 17 17 18 17 17 17 16 16 16 16
14 14 13 13 13 12 12 11 11 11 10 10 10 10 10 9 9 9 9 9 9 8 7 7 5 4 3 2 3 5 5 4 4 4 3 4 4 5 5 6 6 7 8 8 8 9 10 10 11 11 12 12 13 13 14 14 15 15 15 15 16 16 16 16 16 16 16 17 17 18 18 19 18 18 17 17 17 17 17 16 16 15 15 15 16
14 14 14 13 12 12 12 12 11 10 10 10 9 9 9 9 9 9 8 8 8 7 7 6 5 5 4 2 1 5 5 4 4 4 4 4 5 6 6 7 8 9 9 9 10 10 11 11 12 12 13 13 14 14 15 15 15 15 15 15 16 17 18 18 18 18 18 18 18 17 17 16 16 17 17 17 16 16 16 16 15 14 15 15 15
13 14 14 13 13 12 12 12 11 11 10 10 9 9 9 8 8 8 8 7 7 7 6 6 6 6 5 5 4 6 6 4 4 5 5 5 6 6 7 8 9 10 11 11 11 12 12 13 13 13 14 14 15 15 16 16 16 16 16 16 17 18 19 19 19 18 18 17 17 16 14 13 14 15 16 16 15 15 15 15 14 14 14 15 15
12 13 13 13 12 11 11 11 11 10 10 9 8 8 8 7 7 7 7 7 7 7 6 6 6 6 7 7 7 7 6 5 6 6 6 7 7 8 8 9 10 11 11 12 12 13 13 14 14 14 15 15 15 16 16 17 17 17 17 17 18 18 18 18 18 16 16 15 15 14 12 11 12 13 13 13 13 14 14 14 14 14 15 15 15
12 13 13 13 12 11 10 10 9 9 8 8 8 8 8 7 7 7 7 7 7 6 6 6 6 6 7 7 7 7 7 7 7 8 8 9 9 9 9 10 11 12 12 12 13 13 14 15 15 15 16 15 16 17 17 17 17 17 17 17 18 18 18 18 16 15 14 14 14 13 13 12 11 12 12 12 12 13 14 15 15 15 15 15 15
11 11 12 12 11 10 10 9 8 8 8 8 8 8 8 7 7 7 6 6 6 6 6 6 6 6 7 7 7 8 8 9 9 9 10 10 10 10 11 11 12 13 13 13 13 14 15 15 16 16 17 17 16 17 17 17 17 17 16 17 18 18 18 18 16 15 14 14 14 14 14 13 13 12 12 12 13 14 15 16 15 15 16 16 16
9 9 9 9 9 9 8 8 7 7 7 7 7 7 7 7 7 6 6 6 6 6 7 7 7 7 7 8 8 9 9 10 10 11 11 11 11 12 12 13 13 14 14 14 15 15 15 16 16 17 18 18 18 18 18 18 17 17 17 17 18 18 18 17 16 15 15 15 15 15 14 15 14 14 14 14 15 15 16 16 16 16 16 16 15
8 8 8 7 7 7 7 7 7 7 8 8 7 7 7 7 6 7 7 7 7 7 7 7 8 8 8 9 9 10 10 11 12 12 13 13 13 13 13 14 15 15 16 16 16 16 16 17 17 18 19 19 19 19 19 18 18 18 18 18 18 18 18 17 16 16 15 15 15 16 16 16 16 16 16 16 16 17 17 17 16 16 16 15 15
7 7 7 6 6 7 7 7 8 8 8 7 7 7 7 7 7 7 7 7 7 8 8 8 9 9 10 10 11 12 12 13 13 14 14 14 15 15 15 16 16 17 17 17 17 17 17 18 18 19 19 20 20 20 20 19 18 18 18 18 18 18 17 17 17 17 16 16 16 16 16 17 17 17 17 17 17 17 17 17 16 16 15 15 14
7 6 6 6 6 6 7 7 7 7 7 7 6 6 6 7 7 7 8 8 9 9 9 10 10 11 11 12 13 13 14 15 15 16 16 16 16 16 17 17 17 18 18 18 18 17 18 18 18 19 20 20 21 21 20 19 19 19 19 19 18 18 17 17 17 16 16 16 16 16 16 17 17 17 17 17 17 17 17 17 16 16 15 14 13
7 7 7 7 7 7 7 7 7 7 6 6 6 7 7 7 8 8 9 10 10 10 11 11 12 12 13 14 15 15 16 17 17 17 17 17 18 17 17 18 18 18 18 18 18 18 18 18 18 19 19 20 20 20 20 19 19 18 19 19 18 18 17 16 16 15 15 15 15 15 15 15 15 15 15 15 15 15 16 15 15 14 13 13 12
7 7 7 6 6 6 7 7 6 6 6 6 7 7 8 9 10 10 10 12 12 12 13 13 14 15 16 16 17 18 18 18 19 19 19 19 19 18 18 19 19 19 19 19 18 18 19 19 19 19 19 19 20 20 20 19 18 18 18 19 18 18 17 16 15 14 13 13 13 13 12 13 13 13 12 12 12 12 13 12 12 12 12 12 12
Wind_Direction
208 209 211 212 213 213 213 213 214 217 219 217 214 211 207 202 197 194 192 190 189 190 190 190 190 190 190 189 187 186 185 184 183 184 184 185 184 183 180 178 178 177 177 178 180 185 189 192 200 212 218 223 225 228 234 240 248 251 251 254 250 245 241 231 232 252 269 272 273 277 283 288 295 301 305 307 310 312 314 320 326 329 331 331 333
208 210 212 213 214 214 215 214 213 214 214 214 213 210 206 201 197 195 193 192 192 192 192 192 193 193 192 191 190 189 188 187 186 187 187 187 186 185 184 181 180 180 182 183 183 187 193 196 202 212 218 224 228 231 237 241 248 254 253 254 254 250 245 241 241 253 271 278 279 282 287 292 298 304 307 308 311 313 316 322 327 330 332 332 334
209 211 213 214 214 215 215 215 214 213 212 211 211 209 206 201 198 197 195 194 194 194 194 194 194 194 194 193 192 192 191 190 190 191 191 191 189 187 187 185 185 185 185 186 187 190 196 200 204 210 219 226 230 232 238 245 250 255 257 256 256 255 251 250 251 255 269 280 284 286 290 295 299 303 305 308 311 314 317 323 327 330 332 333 335
209 211 213 213 214 214 214 214 213 212 211 211 210 209 206 202 200 199 198 197 196 196 196 197 197 196 195 195 195 194 194 193 194 195 196 196 194 191 189 189 190 190 190 190 192 196 200 203 206 211 219 227 232 235 238 244 251 255 258 258 258 258 256 256 259 261 267 276 283 287 291 296 299 301 305 308 310 314 318 323 326 329 332 334 335
208 210 212 212 213 213 213 213 212 212 211 210 210 208 205 203 202 201 200 199 198 197 198 198 199 199 198 198 198 197 198 197 198 199 199 200 199 196 194 193 193 193 195 196 198 202 205 208 210 214 220 227 234 238 241 245 251 254 257 259 260 260 259 259 262 263 264 271 280 288 292 294 297 301 306 310 312 315 319 322 326 328 330 333 333
207 207 209 211 211 212 212 211 211 211 211 210 210 208 206 204 203 203 202 201 200 199 200 200 201 201 201 201 201 201 201 201 202 203 203 202 202 200 199 198 197 197 198 199 204 208 212 214 217 219 224 232 237 241 244 247 250 254 259 261 261 260 260 261 262 263 266 271 278 284 289 292 296 300 305 310 314 317 320 322 324 326 329 331 330
206 205 206 208 210 211 211 210 210 211 211 211 210 208 207 206 205 204 203 202 202 202 202 203 203 203 203 203 204 205 205 205 206 208 207 205 204 203 202 202 202 202 202 205 209 213 217 220 223 227 231 238 243 245 248 251 253 258 262 261 260 259 260 261 262 264 268 273 276 280 285 289 292 296 301 307 311 316 322 324 321 321 326 329 326
205 205 205 206 209 210 209 209 210 211 211 211 210 208 207 207 206 205 204 203 204 205 205 206 205 205 205 206 207 208 208 208 210 211 210 209 208 207 206 206 207 207 207 211 214 218 222 225 228 233 238 243 247 249 252 256 258 261 263 262 260 259 260 262 263 266 268 271 274 277 282 286 288 292 298 304 309 313 322 324 318 317 321 322 321
204 205 205 206 209 209 208 209 210 211 210 209 208 207 206 206 206 205 205 205 206 207 208 208 206 206 206 208 209 211 211 212 214 215 214 213 212 212 211 211 212 212 213 216 219 222 225 228 232 236 240 246 249 251 254 257 260 262 264 263 261 260 261 262 263 266 266 266 269 274 278 280 284 290 293 298 307 311 317 320 313 312 316 314 313
204 205 206 207 208 207 207 208 209 208 208 207 207 206 205 206 206 206 206 207 207 208 208 208 207 208 208 210 211 213 214 216 218 219 219 218 217 217 217 218 217 218 220 223 225 227 229 231 234 237 242 247 250 252 255 258 261 264 265 264 262 262 262 263 263 263 261 261 265 270 272 276 281 284 288 296 304 308 313 316 309 308 311 311 311
205 206 208 207 207 206 206 207 207 206 206 205 206 206 206 206 207 207 207 207 208 209 209 209 209 209 211 212 214 216 218 219 221 222 223 222 223 223 224 225 223 223 226 229 230 232 233 235 236 238 242 247 251 255 257 259 262 265 265 264 263 263 263 263 263 262 258 258 264 266 265 272 280 282 285 294 300 304 307 306 299 300 304 306 308
205 207 208 206 206 205 205 204 204 205 205 204 205 206 207 207 207 207 207 208 208 209 209 210 210 211 213 215 217 220 221 221 223 225 226 226 227 229 231 230 229 229 230 232 235 237 238 240 240 241 244 249 254 256 258 260 262 264 265 265 265 266 267 266 265 264 260 259 264 266 263 268 277 280 282 291 297 299 300 294 285 285 287 290 294
205 206 206 205 205 204 203 202 202 203 204 205 206 206 207 207 207 207 207 207 208 209 210 211 211 212 215 218 221 223 223 224 225 228 231 231 232 233 234 233 234 235 235 236 237 239 241 243 244 245 248 251 254 256 258 261 262 262 262 262 262 264 265 265 266 266 265 262 262 266 268 269 273 276 281 288 291 290 287 279 273 275 280 284 287
203 204 204 204 203 202 202 202 201 202 203 205 205 206 206 207 208 208 208 207 208 209 210 211 212 214 218 221 223 225 226 227 229 232 235 235 235 235 236 237 238 239 238 239 241 243 245 246 247 250 253 253 255 258 260 263 264 263 261 260 261 262 260 258 258 258 259 261 262 267 272 272 272 276 281 282 280 279 275 270 269 274 281 286 289
200 201 201 201 201 200 200 200 200 201 203 204 204 204 205 207 207 208 208 208 209 209 210 212 213 216 220 223 225 228 230 231 234 236 238 237 237 237 239 240 240 241 241 241 243 246 248 249 251 253 255 257 258 259 262 264 265 265 264 263 264 264 262 261 260 257 254 255 261 268 272 273 272 275 277 277 276 272 266 265 270 279 288 294 295
198 198 198 198 199 199 198 198 198 199 200 201 202 203 205 205 206 207 207 208 210 211 212 213 215 219 223 226 228 231 234 236 238 239 240 239 239 238 239 242 242 242 243 244 245 247 249 250 252 254 256 258 260 261 262 264 265 265 265 266 267 266 266 265 264 261 256 256 260 266 269 271 272 272 273 275 272 265 259 261 271 284 295 299 299
195 195 195 196 197 198 198 196 195 196 197 199 201 203 204 205 206 207 207 207 209 211 213 215 219 224 228 229 231 234 238 241 242 241 241 241 240 238 239 242 243 244 246 247 248 249 250 251 253 255 257 259 261 262 262 262 264 266 266 268 269 269 270 270 267 263 261 261 262 264 266 266 265 264 264 261 256 254 256 263 275 289 298 297 295
193 194 195 196 197 197 197 196 195 195 198 200 202 202 204 205 206 207 207 208 211 214 218 222 227 230 232 232 233 238 243 245 243 242 242 241 240 239 240 242 244 246 248 250 251 251 252 253 254 255 258 260 261 263 262 261 263 266 267 269 269 269 272 274 271 268 266 264 262 262 262 259 256 255 253 249 246 249 255 267 281 292 293 284 281
193 194 195 196 196 196 196 196 198 199 201 202 203 204 205 206 207 208 210 214 219 223 228 232 233 234 234 235 237 240 245 245 243 243 242 241 241 241 241 243 245 248 250 252 254 255 255 255 256 256 258 261 262 262 263 263 263 265 268 268 266 269 274 275 274 273 270 266 263 261 258 255 250 249 249 249 248 250 257 270 282 287 285 277 273
192 193 194 194 195 196 196 197 199 201 203 203 204 205 206 207 208 210 214 220 226 230 233 235 235 236 237 238 241 243 245 245 244 244 244 244 244 244 243 244 246 249 252 254 256 257 258 258 259 259 261 262 263 264 266 266 266 268 268 264 263 269 275 275 274 275 274 271 268 264 259 255 250 249 249 249 250 252 258 267 275 279 278 273 268
190 191 193 192 194 195 197 199 202 204 205 205 205 205 208 210 213 217 222 227 229 231 233 235 237 239 241 242 244 245 245 246 247 248 249 249 249 247 246 247 249 251 253 256 258 260 262 263 264 265 265 266 267 268 268 267 266 266 266 266 268 272 275 274 275 276 273 271 269 264 259 255 251 251 251 250 248 250 254 261 272 278 274 268 265
187 188 189 190 193 195 196 199 201 202 203 203 204 207 212 217 222 226 228 229 230 231 233 235 238 241 242 244 246 247 248 250 251 253 253 253 253 251 249 251 254 255 256 259 260 262 265 267 269 271 272 273 274 273 272 271 267 263 263 266 269 271 271 271 272 272 268 265 262 260 257 253 250 250 251 250 247 248 253 264 277 279 272 266 265
184 185 187 189 191 193 195 196 198 199 201 205 209 213 216 218 222 224 225 226 227 229 232 234 237 241 244 246 248 250 251 252 253 255 255 255 255 254 252 252 253 255 258 262 263 265 268 271 273 276 278 279 279 278 278 275 269 264 263 264 264 265 265 265 264 262 258 255 252 252 251 250 249 250 251 249 247 248 258 273 281 278 270 266 265
180 182 184 187 188 191 193 195 197 200 204 207 209 210 211 213 216 219 221 223 224 227 231 234 236 240 244 247 249 251 253 254 256 257 259 260 259 259 258 256 255 254 257 261 265 268 271 273 276 279 281 282 282 281 279 274 268 265 266 266 266 266 264 262 261 258 255 250 247 246 249 249 249 250 251 249 248 254 266 277 280 276 268 265 265
178 180 183 185 187 189 191 194 198 202 204 204 203 204 207 208 211 215 219 222 225 228 231 234 236 239 244 248 252 255 258 261 262 263 265 266 266 266 265 264 262 258 257 261 265 268 272 276 279 281 282 283 283 280 276 272 269 268 268 268 268 267 265 264 262 258 255 252 250 250 253 254 253 252 251 250 252 261 271 278 279 274 268 267 268
177 178 181 184 186 188 188 189 194 197 198 201 204 208 211 212 213 217 219 221 225 229 231 235 238 242 247 252 256 260 263 267 269 269 270 270 271 271 270 268 266 263 261 263 267 269 271 275 277 278 278 279 279 277 276 277 276 273 270 267 265 262 262 264 263 260 257 256 256 257 258 257 255 253 250 251 258 267 275 279 277 272 268 269 270
172 174 177 179 180 183 183 182 185 188 191 197 202 208 214 216 216 218 220 221 225 228 232 237 240 245 251 256 260 264 266 268 272 275 276 276 275 275 272 269 267 265 264 266 269 271 274 275 276 277 278 278 277 276 277 278 278 275 271 267 262 259 259 262 263 262 261 261 261 260 259 257 255 252 250 255 264 271 277 279 275 271 270 271 271
166 166 169 170 170 174 177 177 178 181 184 190 197 202 209 215 218 223 228 231 233 236 239 243 247 253 258 262 265 267 268 271 276 279 279 279 278 276 274 273 272 270 270 272 273 274 276 277 279 282 285 286 286 284 281 278 277 276 273 270 265 263 262 262 261 260 261 263 264 263 260 257 254 253 255 261 268 275 280 278 274 272 271 268 267
159 157 159 162 163 165 169 171 173 177 179 181 187 195 205 215 222 230 236 240 243 247 250 253 258 262 265 267 268 269 273 278 284 286 285 287 289 289 288 289 288 286 286 286 284 282 284 288 292 296 299 299 297 294 289 284 281 279 277 275 272 269 266 262 259 258 259 261 262 262 259 257 255 256 259 264 271 278 280 275 271 269 268 263 262
148 148 152 155 156 159 161 162 165 170 173 177 179 179 188 205 217 225 232 237 240 243 247 254 259 261 264 267 270 274 281 288 292 295 296 295 293 294 297 299 298 296 297 297 291 288 289 293 296 300 304 302 297 294 292 288 284 282 281 280 278 275 272 268 266 265 265 263 262 261 259 256 257 258 260 264 270 274 273 270 267 265 261 260 262
140 140 144 147 148 151 152 151 155 160 164 173 177 171 166 168 184 204 215 218 223 230 237 247 257 263 271 277 278 284 295 304 303 297 291 285 280 280 284 287 288 287 287 284 279 276 278 282 284 287 290 291 289 290 291 289 286 286 285 284 282 279 276 275 275 275 272 268 265 263 260 258 258 258 259 262 265 266 266 264 260 258 257 258 261
137 135 138 139 140 143 145 146 152 156 159 166 172 172 164 150 139 147 170 178 177 178 181 189 210 263 309 328 324 310 308 312 307 290 277 276 277 276 277 281 286 285 277 272 275 279 282 284 285 287 290 292 294 298 301 300 297 296 293 291 289 286 282 282 282 280 275 271 269 266 264 261 259 258 258 259 259 258 258 256 253 254 256 257 261
139 138 140 140 141 143 144 145 148 151 155 160 164 171 173 165 151 141 138 142 149 150 148 141 128 121 132 135 118 93 100 127 173 217 239 248 255 265 268 266 279 291 284 272 278 291 303 311 314 316 318 320 322 323 323 322 320 318 314 308 304 300 296 294 290 283 277 273 272 269 267 265 263 260 258 257 254 253 253 253 251 251 253 256 262
140 139 141 143 144 144 145 147 148 148 151 155 159 165 171 174 171 163 155 155 162 167 168 166 160 159 167 173 178 188 202 220 237 253 264 266 266 273 276 271 267 278 288 293 298 304 310 318 324 327 327 327 326 324 323 322 321 321 319 316 314 313 310 306 302 295 288 281 275 272 270 268 264 260 256 254 251 249 250 249 248 249 251 255 262
139 138 140 143 145 144 144 147 148 149 151 154 158 164 167 170 177 180 180 181 180 177 176 177 180 187 193 194 197 215 236 250 260 268 272 274 274 276 281 282 277 273 277 284 292 298 303 308 312 315 318 321 321 320 321 321 320 319 318 315 314 314 313 311 308 305 301 293 284 279 275 270 266 261 256 251 248 247 248 248 248 250 252 255 263
141 139 140 144 145 144 145 147 149 151 155 157 158 163 165 168 173 177 182 186 184 182 183 187 192 200 210 215 221 234 250 263 268 273 279 284 288 290 290 291 289 283 280 280 281 287 295 301 306 310 312 313 315 317 319 319 318 318 317 316 315 314 313 312 309 307 306 301 294 287 279 273 269 264 256 250 249 249 250 251 251 251 254 258 265
142 143 143 145 147 148 148 150 152 154 156 158 160 163 163 165 169 171 173 175 178 181 186 193 200 208 217 225 229 236 250 262 272 283 293 299 306 312 311 304 297 298 299 296 292 295 299 303 308 312 315 318 320 323 326 326 325 323 322 321 319 316 315 314 311 307 306 303 298 293 286 279 272 265 256 252 252 252 252 252 251 252 256 261 266
142 144 146 147 150 153 153 153 155 156 157 159 161 163 163 163 165 169 170 171 175 180 183 190 199 206 214 226 232 233 246 261 273 285 294 300 307 316 321 322 319 317 317 318 320 323 325 325 323 322 323 325 326 327 328 328 326 324 323 322 320 316 315 314 312 309 309 308 304 300 294 286 277 269 261 257 255 255 254 252 251 252 257 261 264
144 145 147 149 152 154 156 156 157 158 159 160 161 165 166 166 167 169 171 174 176 181 185 189 193 197 207 231 252 254 258 273 283 290 298 307 318 327 329 328 330 329 329 331 333 332 334 333 330 328 328 328 327 328 328 327 323 320 318 317 317 316 316 317 317 316 315 314 312 308 304 298 290 281 272 263 259 258 255 253 253 256 260 265 270
150 150 152 154 156 156 156 157 158 159 161 163 165 167 169 170 172 174 176 178 180 184 190 193 198 202 202 235 293 290 287 295 304 314 326 327 328 333 331 326 326 326 326 328 328 327 328 327 325 326 328 327 327 328 327 325 323 319 314 311 310 311 314 317 320 320 319 315 311 308 306 303 298 290 280 271 265 261 259 258 259 261 265 271 277
155 154 154 156 158 157 155 155 156 158 161 164 168 171 172 174 176 178 180 184 186 190 194 196 201 205 182 139 289 283 286 304 317 321 328 325 320 322 321 318 318 319 319 319 319 319 320 321 322 324 326 326 327 328 326 326 325 321 315 310 305 303 305 307 311 316 317 314 310 307 306 305 300 290 281 276 271 266 263 263 264 267 270 274 278
158 157 154 154 156 156 156 156 157 160 163 166 169 172 174 176 179 183 187 191 193 197 201 203 207 207 189 178 223 264 284 306 308 305 308 308 305 306 306 305 307 308 309 312 314 313 314 316 317 319 320 321 322 323 322 322 323 321 318 314 309 305 303 303 306 310 312 311 310 309 308 305 299 290 283 279 274 269 268 268 269 272 275 277 279
157 155 152 152 155 156 157 158 160 162 165 167 169 173 177 181 186 189 193 197 200 208 214 215 215 215 212 218 241 264 282 291 290 291 295 294 294 296 295 293 295 298 301 305 307 306 308 310 312 313 315 316 317 317 317 317 318 317 316 313 310 308 307 306 307 310 311 311 312 311 307 302 297 292 288 283 277 273 273 273 273 276 278 280 282
157 155 154 155 155 155 157 159 161 164 167 170 175 179 183 188 192 195 201 206 211 217 222 222 223 225 230 240 253 265 274 280 283 286 288 288 289 291 290 290 292 294 296 299 301 301 303 305 307 309 311 312 311 311 311 310 310 310 311 310 309 308 308 307 306 307 308 307 307 307 304 302 298 293 289 285 280 276 276 276 277 280 281 281 283
159 159 159 158 156 157 159 161 165 171 175 179 184 187 189 194 200 204 211 217 219 221 224 225 229 234 240 249 258 264 270 277 280 282 285 287 289 290 290 290 292 293 295 297 298 298 300 302 304 307 309 309 309 308 308 307 307 306 306 305 305 305 306 306 303 301 299 297 296 297 297 296 294 290 288 287 284 280 280 281 281 282 282 283 284
158 159 159 159 160 162 165 167 173 179 184 189 193 195 198 203 209 213 218 220 222 225 230 233 239 245 249 255 261 265 270 275 278 281 284 286 288 290 290 290 291 293 295 296 296 297 299 300 302 304 305 306 306 307 306 306 306 305 305 303 300 300 301 301 299 296 294 291 289 289 287 286 287 287 286 287 286 284 283 283 282 282 283 284 285
156 156 157 161 165 167 172 178 182 187 193 197 201 205 208 212 215 218 221 225 228 233 238 244 250 256 260 264 268 271 274 277 279 282 285 286 288 289 290 290 291 292 293 294 295 296 297 297 298 299 300 301 303 304 304 304 305 305 305 302 299 296 296 295 293 292 291 288 286 285 283 283 285 285 285 286 285 284 283 284 284 285 286 286 287
158 159 161 166 171 175 184 189 191 197 202 205 207 210 214 217 221 224 229 234 238 242 246 252 257 262 266 271 274 277 279 281 282 284 286 287 288 289 289 290 291 291 292 293 294 294 295 296 296 296 297 298 299 300 300 301 302 303 302 300 297 295 294 292 291 290 289 286 284 284 283 283 284 284 284 284 284 283 284 284 284 286 286 286 287
161 164 168 173 176 182 190 194 197 203 206 208 212 218 222 226 233 237 241 246 250 253 257 261 264 268 271 275 277 279 281 282 283 285 286 286 287 289 289 289 289 289 290 292 293 294 295 296 296 296 296 297 297 298 299 300 301 302 301 299 297 294 292 291 290 290 289 288 286 285 284 284 284 284 285 286 285 285 285 284 285 286 285 284 287
165 168 172 177 180 185 192 196 201 208 211 216 224 232 237 242 247 250 253 257 260 263 266 269 271 273 276 278 280 282 283 284 284 285 286 286 288 289 289 288 288 288 289 291 293 294 295 295 295 296 296 296 296 297 297 298 300 300 300 299 297 295 293 291 290 289 288 288 287 287 286 286 286 286 287 288 287 286 285 285 285 286 284 284 286
169 170 173 179 184 190 199 206 213 219 225 233 241 246 250 255 258 260 261 264 267 270 272 274 275 277 279 281 283 284 284 285 286 286 287 288 289 289 289 289 288 288 289 290 292 293 294 295 295 294 294 295 296 296 295 296 298 299 298 298 297 295 293 291 289 288 287 286 287 287 286 287 288 289 290 291 290 289 289 288 286 285 285 286 287